Weather in San Martino di Castrozza

Italy     46°15′42″N   11°48′04″E
temp.,
°C
wind,
m/s
gust,
m/s
humid.,
%
clouds,
%
prec.,
mm/h
press.,
hPa
HPBL,
m
24 july, sat
sat2423:00+11wnw009518 0.8 101811
02:00+11wnw1196100 0.9 101911
05:00+11nw2196100 0.0 101818
08:00+14sw00876 0.0 1016107
11:00+20s225713 0.0 1014981
14:00+18s337799 1.3 1015952
17:00+17s2392100 2.7 1015513
20:00+15s229570 3.8 1015124
25 july, sun
sun2523:00+13wsw009683 1.1 101614
02:00+11nnw11955 1.6 101511
05:00+11nnw119578 0.0 101513
08:00+14se1191100 0.0 101489
11:00+19sse3353100 0.1 10131146
14:00+19sse3461100 0.4 10131214
17:00+17s23780 2.4 1013542
20:00+14sw11893 4.3 101413
26 july, mon
mon2623:00+11nnw2188100 1.6 101515
02:00+12nnw2185100 2.1 101414
05:00+11n1187100 0.3 101411
08:00+14nw0188100 0.9 101553
11:00+18sse2264100 1.4 1015849
14:00+19sse3363100 2.0 10141275
17:00+17s337848 1.3 1015790
20:00+14wsw0088100 2.7 101610
27 july, tue
tue2723:00+11n1195100 1.8 101816
02:00+11nne2396100 5.6 101869
05:00+10wnw1193100 0.1 101811
08:00+13nw019225 0.6 101879
11:00+16s2372100 1.5 1017878
14:00+15s2388100 3.8 1018618
17:00+15ssw2385100 1.8 1017615
20:00+13ssw2294100 4.7 101640
28 july, wed
wed2823:00+12w1195100 5.2 101814
02:00+11n1194100 6.5 101813
05:00+10nnw229757 0.8 101840
08:00+13n119127 0.8 1018160
11:00+16sse118053 0.9 1018749
14:00+16s228054 2.5 1018816
17:00+18sse227034 1.2 10171053
20:00+14ssw11930 1.8 101823